Leadville, CO

4:28 AM MST on November 22, 2017 (GMT -0700)
Lake County

Weather History for KLXV - September, 2011

Change the Weather History Date:

Friday, September 9, 2011

  Actual Average Record
Temperature  
Mean Temperature 44 °F -  
Max Temperature 58 °F 63 °F 72 °F (1988)
Min Temperature 30 °F 33 °F 21 °F (2001)
Degree Days  
Heating Degree Days 21 17  
Month to date heating degree days 138 145  
Since 1 July heating degree days 655 867  
Cooling Degree Days 0 0  
Month to date cooling degree days 0 0  
Year to date cooling degree days 0 0  
Moisture  
Dew Point 33 °F    
Average Humidity 65    
Maximum Humidity 100    
Minimum Humidity 30    
Precipitation  
Precipitation T in 0.04 in 0.31 in (2002)
Month to date precipitation 1.01 0.40  
Year to date precipitation 11.78 9.35  
Snow  
Snow 0.00 in - - ()
Month to date snowfall 0.0  
Snow Depth 0.00 in    
Sea Level Pressure  
Sea Level Pressure 30.25 in    
Wind  
Wind Speed 4 mph (South)    
Max Wind Speed 18 mph    
Max Gust Speed 25 mph    
Visibility 8 miles    
Events Fog , Rain    
T = Trace of Precipitation, MM = Missing Value Source: NWS Daily Summary

Daily Weather History Graph

Daily Weather History Graph

Search for Another Location

Airport or City:

Trip Planner

Search our weather history database for the weather conditions in past years. The results will help you decide how hot, cold, wet, or windy it might be!

Date:

Astronomy

Sep. 09, 2011 Rise Set
Actual Time 6:40 AM MDT 7:23 PM MDT
Civil Twilight 6:13 AM MDT 7:50 PM MDT
Nautical Twilight 5:41 AM MDT 8:22 PM MDT
Astronomical Twilight 5:08 AM MDT 8:55 PM MDT
Moon 5:50 PM MDT (9/9) 4:04 AM MDT (9/9)
Length of Visible Light 13h 36m
Length of Day
12h 42m
Waxing Gibbous, 93% of the Moon is Illuminated
Sep 9
Waxing Gibbous
Sep 12
Full
Sep 20
Last Quarter
Sep 27
New
Oct 3
First Quarter

Hourly Weather History & Observations

Time (MDT) Temp. Windchill Dew Point Humidity Pressure Visibility Wind Dir Wind Speed Gust Speed Precip Events Conditions
12:53 AM 37.0 °F 34.5 °F 35.1 °F 93% 30.18 in 10.0 mi SE 3.5 mph - N/A   Clear
1:53 AM 35.1 °F - 34.0 °F 96% 30.17 in 10.0 mi Calm Calm - N/A   Mostly Cloudy
2:53 AM 35.1 °F - 34.0 °F 96% 30.14 in 10.0 mi Calm Calm - N/A   Clear
3:53 AM 34.0 °F - 33.1 °F 96% 30.17 in 10.0 mi Calm Calm - N/A   Clear
4:53 AM 32.0 °F - 30.9 °F 96% 30.19 in 10.0 mi Calm Calm - N/A   Clear
5:53 AM 32.0 °F - 30.9 °F 96% 30.24 in 10.0 mi Calm Calm - N/A   Clear
6:53 AM 32.0 °F - 30.9 °F 96% 30.25 in 10.0 mi Calm Calm - N/A   Clear
7:00 AM 30.2 °F - 30.2 °F 100% 30.50 in 9.0 mi Calm Calm - N/A   Scattered Clouds
7:23 AM 30.2 °F 26.7 °F 30.2 °F 100% 30.51 in 2.0 mi ESE 3.5 mph - N/A   Mostly Cloudy
7:25 AM 30.2 °F 26.7 °F 30.2 °F 100% 30.51 in 0.8 mi ESE 3.5 mph - N/A   Mist
7:34 AM 30.2 °F - 30.2 °F 100% 30.51 in 0.2 mi Calm Calm - N/A Fog Light Freezing Fog
7:46 AM 32.0 °F - 32.0 °F 100% 30.50 in 1.0 mi Calm Calm - N/A   Mist
7:50 AM 32.0 °F - 32.0 °F 100% 30.50 in 3.0 mi Calm Calm - N/A   Mostly Cloudy
7:53 AM 33.1 °F - 33.1 °F 100% 30.24 in 7.0 mi Calm Calm - N/A   Scattered Clouds
8:19 AM 33.8 °F 30.8 °F 33.8 °F 100% 30.50 in 0.8 mi NW 3.5 mph - N/A   Mist
8:27 AM 33.8 °F - 33.8 °F 100% 30.50 in 0.2 mi Calm Calm - N/A Fog Fog
8:53 AM 34.0 °F - 34.0 °F 100% 30.24 in 0.2 mi Calm Calm - N/A Fog Fog
9:32 AM 37.4 °F - 35.6 °F 93% 30.50 in 1.2 mi Calm Calm - N/A   Mostly Cloudy
9:40 AM 39.2 °F 37.0 °F 37.4 °F 93% 30.49 in 10.0 mi Variable 3.5 mph - N/A   Mostly Cloudy
9:51 AM 39.2 °F - 37.4 °F 93% 30.49 in 10.0 mi Calm Calm - N/A   Partly Cloudy
9:53 AM 39.0 °F - 37.0 °F 93% 30.22 in 10.0 mi Calm Calm - N/A   Partly Cloudy
10:53 AM 45.0 °F 41.2 °F 37.9 °F 76% 30.17 in 10.0 mi SW 6.9 mph - N/A   Clear
11:53 AM 50.0 °F - 36.0 °F 59% 30.13 in 10.0 mi SSW 12.7 mph 18.4 mph N/A   Clear
12:53 PM 52.0 °F - 34.0 °F 50% 30.09 in 10.0 mi SW 10.4 mph 18.4 mph N/A   Partly Cloudy
1:53 PM 53.1 °F - 33.1 °F 47% 30.09 in 10.0 mi SW 11.5 mph 19.6 mph N/A   Partly Cloudy
2:53 PM 55.0 °F - 28.0 °F 35% 30.06 in 10.0 mi SW 9.2 mph - N/A   Scattered Clouds
3:53 PM 57.0 °F - 27.0 °F 32% 30.02 in 10.0 mi SW 11.5 mph - N/A   Partly Cloudy
4:53 PM 57.0 °F - 27.0 °F 32% 30.03 in 10.0 mi Variable 6.9 mph - N/A   Partly Cloudy
5:53 PM 55.9 °F - 27.0 °F 33% 30.04 in 10.0 mi Variable 3.5 mph - N/A   Clear
6:53 PM 48.9 °F - 34.0 °F 56% 30.11 in 10.0 mi SE 9.2 mph 19.6 mph 0.00 in Rain Light Rain
7:53 PM 46.9 °F - 33.1 °F 59% 30.13 in 10.0 mi SSE 4.6 mph - 0.00 in   Mostly Cloudy
8:53 PM 48.0 °F - 33.1 °F 56% 30.14 in 10.0 mi SSW 4.6 mph - N/A   Partly Cloudy
9:53 PM 46.0 °F 44.8 °F 33.1 °F 61% 30.13 in 10.0 mi Variable 3.5 mph - N/A   Clear
10:53 PM 44.1 °F 42.5 °F 33.1 °F 65% 30.10 in 10.0 mi South 3.5 mph - N/A   Partly Cloudy
11:53 PM 39.9 °F - 30.9 °F 70% 30.10 in 10.0 mi Calm Calm - N/A   Clear